{"data":{"norad_id":43257,"epoch":"2026-05-25T02:59:19.377312Z","epoch_age_seconds":64485,"freshness":"FRESH","line1":"1 43257U 18030J   26145.12452983 -.00000030  00000+0 -17646-4 0  9997","line2":"2 43257  86.3935 300.1125 0002049  91.0347 269.1084 14.34217698426858","mean_motion":14.34217698,"eccentricity":0.0002049,"inclination_deg":86.3935,"raan_deg":300.1125,"arg_perigee_deg":91.0347,"mean_anomaly_deg":269.1084,"bstar":-1.7646e-5,"rev_number":42685,"period_min":100.40316766472,"perigee_km":776.20110301071,"apogee_km":779.13355162405,"semimajor_km":7155.8043273174,"source":"CELESTRAK","updated_at":"2026-05-25T13:38:14.809150Z"}}